Flag for Mexico Weather past 2 weeks in Ojinaga, Chihuahua, Mexico

Now
50 °F

Sunny.


Feels Like: 44 °F
Forecast: 37 / 66 °F
Wind: 20 mph from Northeast

Location: Marfa Municipal Airport

Current Time: Jan 25, 2015 at 11:27:50 AM

Latest Report: Jan 25, 2015 at 10:55 AM


Visibility: 10 mi

Pressure: 30.31 "Hg

Humidity: 32%

Dew point: 21 °F

Location of OjinagaLocation

Historic Weather in Ojinaga — Graph

°F

Ojinaga temperature yesterday

Maximum temperature yesterday: 54 °F (at 2:35 PM)
Minimum temperature yesterday: 21 °F (at 12:35 AM)
Average temperature yesterday: 35 °F

Past Weeks' High & Low Weather Summary

 TemperatureHumidityPressure
High70 °F (Jan 19, 1:35 PM)100% (Jan 10, 10:55 AM)30.43 "Hg (Jan 10, 10:55 AM)
Low21 °F (Jan 16, 4:35 AM)15% (Jan 20, 2:35 PM)29.96 "Hg (Jan 21, 3:15 PM)
Average38 °F73%30.23 "Hg
* Reported Jan 10 10:15 AM — Jan 25 10:35 AM, Ojinaga, Weather by CustomWeather, © 2014

Note: Actual official high and low records may vary slightly from our data, if they occured in-between our weather recording intervals... More about our weather records

Advertising

Ojinaga weather history for previous 24 hours

 ConditionsComfort  
Time TempWeatherWind HumidityBarometerVisibility
10:35 AM
Jan 25
52 °FSunny.18 mph30%30.31 "Hg10 mi
10:15 AM52 °FSunny.20 mph28%30.29 "Hg10 mi
9:55 AM52 °FSunny.17 mph28%30.28 "Hg10 mi
9:35 AM46 °FSunny.5 mph43%30.28 "Hg10 mi
9:15 AM43 °FSunny.No wind49%30.26 "Hg10 mi
8:55 AM41 °FSunny.No wind53%30.26 "Hg10 mi
8:35 AM37 °FSunny.No wind60%30.25 "Hg10 mi
8:15 AM34 °FSunny.3 mph70%30.25 "Hg10 mi
7:55 AM32 °FSunny.5 mph75%30.24 "Hg10 mi
7:35 AM28 °FSunny.3 mph80%30.23 "Hg10 mi
7:15 AM27 °FSunny.3 mph80%30.22 "Hg10 mi
6:55 AM27 °FSunny.7 mph74%30.22 "Hg10 mi
6:35 AM27 °FClear.7 mph74%30.20 "Hg10 mi
6:15 AM25 °FClear.6 mph80%30.19 "Hg10 mi
5:55 AM27 °FClear.3 mph74%30.18 "Hg10 mi
5:35 AM27 °FClear.No wind80%30.18 "Hg10 mi
5:15 AM28 °FClear.5 mph74%30.17 "Hg10 mi
4:55 AM28 °FClear.No wind74%30.17 "Hg10 mi
4:35 AM30 °FClear.3 mph69%30.18 "Hg10 mi
4:15 AM36 °FClear.6 mph56%30.17 "Hg10 mi
3:55 AM34 °FClear.10 mph65%30.17 "Hg10 mi
3:35 AM28 °FClear.No wind69%30.18 "Hg10 mi
3:15 AM28 °FClear.No wind74%30.19 "Hg10 mi
2:55 AM28 °FClear.3 mph80%30.19 "Hg10 mi
2:35 AM32 °FClear.6 mph64%30.19 "Hg10 mi
2:15 AM28 °FClear.5 mph74%30.18 "Hg10 mi
1:55 AM28 °FClear.No wind80%30.19 "Hg10 mi
1:35 AM32 °FClear.3 mph75%30.19 "Hg10 mi
1:15 AM32 °FClear.6 mph75%30.19 "Hg10 mi
12:55 AM30 °FClear.6 mph75%30.19 "Hg10 mi
12:35 AM34 °FClear.6 mph70%30.19 "Hg10 mi
12:15 AM36 °FClear.9 mph60%30.19 "Hg10 mi
11:55 PM
Jan 24
34 °FClear.No wind65%30.20 "Hg10 mi
11:35 PM34 °FClear.6 mph65%30.20 "Hg10 mi
11:15 PM36 °FClear.5 mph56%30.21 "Hg10 mi
10:55 PM36 °FClear.10 mph60%30.21 "Hg10 mi
10:35 PM37 °FClear.6 mph56%30.22 "Hg10 mi
10:15 PM36 °FClear.6 mph56%30.21 "Hg10 mi
9:55 PM30 °FClear.5 mph75%30.22 "Hg10 mi
9:15 PM30 °FClear.No wind75%30.21 "Hg10 mi
8:35 PM34 °FClear.5 mph65%30.21 "Hg10 mi
7:55 PM34 °FClear.No wind70%30.21 "Hg10 mi
7:35 PM34 °FClear.No wind65%30.22 "Hg10 mi
7:15 PM37 °FClear.No wind52%30.22 "Hg10 mi
6:55 PM37 °FClear.5 mph52%30.22 "Hg10 mi
6:35 PM39 °FClear.7 mph48%30.22 "Hg10 mi
6:15 PM39 °FClear.8 mph52%30.22 "Hg10 mi
5:55 PM41 °FClear.7 mph45%30.21 "Hg10 mi
5:35 PM43 °FClear.7 mph42%30.21 "Hg10 mi
5:15 PM45 °FSunny.7 mph39%30.21 "Hg10 mi
4:55 PM48 °FSunny.7 mph34%30.20 "Hg10 mi
4:35 PM50 °FSunny.7 mph35%30.20 "Hg10 mi
4:15 PM52 °FSunny.10 mph35%30.21 "Hg10 mi
3:55 PM52 °FSunny.10 mph32%30.21 "Hg10 mi
3:35 PM54 °FSunny.7 mph26%30.21 "Hg10 mi
2:55 PM54 °FSunny.7 mph22%30.21 "Hg10 mi
2:35 PM54 °FSunny.6 mph22%30.22 "Hg10 mi
2:15 PM52 °FSunny.6 mph24%30.22 "Hg10 mi
1:55 PM52 °FSunny.9 mph22%30.23 "Hg10 mi
1:35 PM52 °FSunny.6 mph22%30.23 "Hg10 mi
1:15 PM52 °FSunny.5 mph24%30.24 "Hg10 mi
12:55 PM52 °FSunny.6 mph26%30.25 "Hg10 mi
12:35 PM50 °FSunny.6 mph28%30.26 "Hg10 mi
12:15 PM50 °FSunny.6 mph30%30.27 "Hg10 mi
11:55 AM48 °FSunny.6 mph34%30.28 "Hg10 mi
11:35 AM46 °FSunny.No wind34%30.31 "Hg10 mi
11:15 AM45 °FSunny.3 mph37%30.32 "Hg10 mi
Weather by CustomWeather, © 2014

See weather overviewHow to use our weather pages